Location: West Sayville
(40.7279°N, 73.0976°W)
Time: 09:54:17
(UTC+00:00)

SL-4 R/B - Pass Details

Date: 29 October 2020
Orbit: 427 x 665 km, 51.6° (Epoch: 23 November)

Event Time Altitude Azimuth Distance (km) Brightness Sun altitude
Rises 22:14:53 0° 305° (NW) 2,422 6.0 -5.1°
Reaches altitude 10° 22:17:40 10° 330° (NNW) 1,580 4.6 -5.6°
Maximum altitude 22:19:49 15° 7° (N) 1,323 3.8 -6.0°
Drops below altitude 10° 22:22:02 10° 45° (NE) 1,639 3.9 -6.4°
Enters shadow 22:23:02 - 56° (NE) 1,914 4.2 -6.6°
